Weather History for Berlin, NH

Change the Weather History Date:

Sunday, January 1, 2006

  Actual Average Record
Temperature  
Mean Temperature 16 °F -  
Max Temperature 19 °F 25 °F 48 °F (2005)
Min Temperature 14 °F 5 °F -18 °F (1998)
Degree Days  
Heating Degree Days 48    
Moisture  
Dew Point 13 °F    
Average Humidity 80    
Maximum Humidity 93    
Minimum Humidity 73    
Precipitation  
Precipitation 0.00 in - - ()
Sea Level Pressure  
Sea Level Pressure 30.04 in    
Wind  
Wind Speed 2 mph (NNW)    
Max Wind Speed 6 mph    
Max Gust Speed -    
Visibility 9 miles    
Events Snow    
Averages and records for this station are not official NWS values.
T = Trace of Precipitation, MM = Missing Value Source: NWS Daily Summary

Daily Weather History Graph

Daily Weather History Graph

Search for Another Location

Airport:

Trip Planner

Search our weather history database for the weather conditions in past years. The results will help you decide how hot, cold, wet, or windy it might be!

Date:

Astronomy

Jan. 01, 2006 Rise Set
Actual Time 7:21 AM EST 4:15 PM EST
Civil Twilight 6:48 AM EST 4:48 PM EST
Nautical Twilight 6:11 AM EST 5:25 PM EST
Astronomical Twilight 5:36 AM EST 6:00 PM EST
Moon 9:05 AM EST (1/1) 6:00 PM EST (1/1)
Length of Visible Light 10h 00m
Length of Day
8h 53m
Waxing Crescent, 4% of the Moon is Illuminated
Jan 1
Waxing Crescent
Jan 6
First Quarter
Jan 14
Full
Jan 22
Last Quarter
Jan 29
New

Hourly Weather History & Observations

Time (EST) Temp. Windchill Dew Point Humidity Pressure Visibility Wind Dir Wind Speed Gust Speed Precip Events Conditions
12:52 AM 17.1 °F 11.7 °F 10.9 °F 77% 29.91 in 10.0 mi NW 3.5 mph - N/A   Overcast
1:45 AM 15.8 °F 8.6 °F 10.4 °F 79% 29.85 in 2.5 mi NNW 4.6 mph - 0.00 in Snow Light Snow
1:52 AM 16.0 °F 10.4 °F 10.9 °F 81% 29.93 in 4.0 mi NNW 3.5 mph - 0.00 in Snow Light Snow
2:52 AM 16.0 °F - 10.0 °F 77% 29.95 in 9.0 mi Calm Calm - 0.00 in Snow Light Snow
3:52 AM 15.1 °F 6.4 °F 10.0 °F 80% 29.95 in 10.0 mi NNW 5.8 mph - 0.00 in   Overcast
4:04 AM 15.8 °F 8.6 °F 10.4 °F 79% 29.89 in 10.0 mi NNW 4.6 mph - N/A   Overcast
4:52 AM 15.1 °F - 9.0 °F 77% 29.98 in 10.0 mi Calm Calm - N/A   Overcast
5:52 AM 15.1 °F 9.4 °F 9.0 °F 77% 30.00 in 10.0 mi NNW 3.5 mph - N/A   Overcast
6:52 AM 14.0 °F 8.2 °F 9.0 °F 80% 30.01 in 10.0 mi NNW 3.5 mph - N/A   Overcast
7:52 AM 15.1 °F 9.4 °F 9.0 °F 77% 30.03 in 10.0 mi NNW 3.5 mph - N/A   Overcast
8:52 AM 15.1 °F 7.7 °F 10.0 °F 80% 30.06 in 10.0 mi NNW 4.6 mph - N/A   Overcast
9:52 AM 16.0 °F - 10.0 °F 77% 30.07 in 10.0 mi Calm Calm - N/A   Overcast
10:34 AM 17.6 °F 12.3 °F 10.4 °F 73% 29.99 in 7.0 mi North 3.5 mph - N/A   Overcast
10:52 AM 17.1 °F 11.7 °F 12.0 °F 81% 30.06 in 8.0 mi NW 3.5 mph - N/A   Overcast
11:19 AM 17.6 °F 10.7 °F 12.2 °F 79% 29.99 in 10.0 mi North 4.6 mph - N/A   Overcast
11:45 AM 17.6 °F - 12.2 °F 79% 29.99 in 10.0 mi Calm Calm - N/A   Overcast
11:52 AM 18.0 °F - 12.0 °F 78% 30.06 in 10.0 mi Calm Calm - N/A   Overcast
12:06 PM 17.6 °F - 12.2 °F 79% 29.99 in 10.0 mi Calm Calm - N/A   Overcast
12:52 PM 19.0 °F - 12.9 °F 77% 30.05 in 10.0 mi Calm Calm - N/A   Overcast
1:52 PM 19.9 °F - 12.9 °F 74% 30.05 in 10.0 mi Calm Calm - N/A   Overcast
2:02 PM 19.4 °F - 12.2 °F 74% 29.99 in 10.0 mi Calm Calm - N/A   Overcast
2:39 PM 19.4 °F 12.8 °F 14.0 °F 80% 30.01 in 10.0 mi West 4.6 mph - N/A   Overcast
2:52 PM 19.9 °F - 14.0 °F 78% 30.09 in 10.0 mi Calm Calm - N/A   Overcast
3:52 PM 19.9 °F - 15.1 °F 81% 30.09 in 10.0 mi Calm Calm - N/A   Overcast
4:52 PM 19.9 °F - 15.1 °F 81% 30.11 in 10.0 mi Calm Calm - N/A   Overcast
5:52 PM 19.9 °F - 15.1 °F 81% 30.12 in 10.0 mi Calm Calm - N/A   Overcast
6:52 PM 19.9 °F - 16.0 °F 85% 30.16 in 10.0 mi Calm Calm - N/A   Overcast
7:52 PM 19.9 °F - 16.0 °F 85% 30.15 in 8.0 mi Calm Calm - 0.00 in   Overcast
8:41 PM 19.4 °F - 15.8 °F 86% 30.10 in 7.0 mi Calm Calm - 0.00 in Snow Light Snow
8:52 PM 19.9 °F - 16.0 °F 85% 30.16 in 8.0 mi Calm Calm - 0.00 in   Overcast
9:36 PM 19.4 °F - 17.6 °F 93% 30.09 in 7.0 mi Calm Calm - 0.00 in Snow Light Snow
9:52 PM 19.9 °F - 17.1 °F 89% 30.15 in 7.0 mi Calm Calm - 0.00 in Snow Light Snow
10:52 PM 19.9 °F - 16.0 °F 85% 30.15 in 9.0 mi Calm Calm - 0.00 in   Overcast
11:52 PM 19.9 °F - 15.1 °F 81% 30.15 in 4.0 mi Calm Calm - 0.00 in Snow Light Snow